Tracking 19170 objects as of 23-May-2018
HD Live streaming from Space Station
objects crossing your sky now

WESTFORD NEEDLES

Track WESTFORD NEEDLES now!
10-day predictions
WESTFORD NEEDLES is classified as:


NORAD ID: 628
Int'l Code: 1963-014F
Perigee: 3,634.9 km
Apogee: 3,697.3 km
Inclination: 87.3 °
Period: 166.8 minutes
Semi major axis: 10037 km
RCS: 0.4773 m2 (medium)
Launch date: May 9, 1963
Source: United States (US)
Launch site: AIR FORCE WESTERN TEST RANGE (AFWTR)
aabbcc
Your satellite tracking list
Your tracking list is empty




NASA's NSSDC Master Catalog

Two Line Element Set (TLE):
1   628U 63014F   18142.56026897 +.00000003 +00000-0 +00000-0 0  9992
2   628 087.3187 123.5973 0031068 215.7770 144.1001 08.63358409734550
Source of the keplerian elements: AFSPC